Tracking 17630 objects as of 6-May-2016
HD Live streaming from Space Station
objects crossing your sky now

COSMOS 1478

Track COSMOS 1478 now!
10-day predictions
COSMOS 1478 is classified as:


NORAD ID: 14176
Int'l Code: 1983-069F
Perigee: 1,469.4 km
Apogee: 1,488.9 km
Inclination: 74.0 °
Period: 115.4 minutes
Semi major axis: 7850 km
RCS: 0.7085 m2 (medium)
Launch date: July 6, 1983
Source: Commonwealth of Independent States (former USSR) (CIS)
Launch site: PLESETSK MISSILE AND SPACE COMPLEX (PKMTR)
Your satellite tracking list
Your tracking list is empty





NASA's NSSDC Master Catalog

Two Line Element Set (TLE):
1 14176U 83069F   16126.83337955 -.00000033 +00000-0 -11681-3 0  9992
2 14176 074.0255 254.1571 0012445 299.5309 172.9119 12.48212549496155
Source of the keplerian elements: AFSPC

N2YO: 380